Flag for Norway Weather past 2 weeks in Flekkefjord, Norway

Now
42 °F

Fog.


Feels Like: 42 °F
Forecast: 42 / 46 °F
Wind: 2 mph from Northwest

Location: Lista Fyr

Current Time: Mar 6, 2015 at 10:59:37 AM

Latest Report: Mar 6, 2015 at 10:00 AM


Visibility: 2 mi

Pressure: 30.26 "Hg

Humidity: 97%

Dew point: 41 °F

Location of FlekkefjordLocation

Historic Weather in Flekkefjord — Graph

°F

Flekkefjord temperature yesterday

Maximum temperature yesterday: 42 °F (at 10:00 PM)
Minimum temperature yesterday: 38 °F (at 3:00 AM)
Average temperature yesterday: 40 °F

Past Weeks' High & Low Weather Summary

 TemperatureHumidityPressure
High45 °F (Feb 24, 2:00 PM)98% (Feb 19, 10:00 AM)30.37 "Hg (Feb 19, 10:00 AM)
Low33 °F (Mar 4, 3:00 AM)56% (Feb 22, 12:00 PM)28.82 "Hg (Feb 23, 5:00 AM)
Average40 °F88%29.53 "Hg
* Reported Feb 19 9:00 AM — Mar 6 9:00 AM, Flekkefjord, Weather by CustomWeather, © 2015

Note: Actual official high and low records may vary slightly from our data, if they occured in-between our weather recording intervals... More about our weather records

Advertising

Flekkefjord weather history for previous 24 hours

 ConditionsComfort  
Time TempWeatherWind HumidityBarometerVisibility
9:00 AM
Fri, Mar 6
41 °FQuite cool.3 mph97%30.25 "HgN/A
8:00 AM41 °FQuite cool.3 mph97%30.24 "HgN/A
7:00 AM41 °FFog.5 mph98%30.23 "Hg2 mi
6:00 AM41 °FQuite cool.6 mph98%30.23 "HgN/A
5:00 AM41 °FQuite cool.8 mph98%30.21 "HgN/A
4:00 AM41 °FQuite cool.8 mph98%30.21 "HgN/A
3:00 AM42 °FQuite cool.10 mph98%30.20 "HgN/A
2:00 AM42 °FQuite cool.10 mph98%30.20 "HgN/A
1:00 AM42 °FQuite cool.9 mph96%30.19 "HgN/A
12:00 AM42 °FQuite cool.10 mph96%30.20 "HgN/A
11:00 PM
Thu, Mar 5
42 °FQuite cool.8 mph96%30.22 "HgN/A
10:00 PM42 °FQuite cool.9 mph97%30.22 "HgN/A
9:00 PM41 °FQuite cool.7 mph97%30.24 "HgN/A
7:00 PM41 °FFog.7 mph96%30.26 "Hg2 mi
6:00 PM41 °FQuite cool.8 mph96%30.27 "HgN/A
5:00 PM42 °FQuite cool.7 mph96%30.27 "HgN/A
4:00 PM42 °FQuite cool.8 mph96%30.30 "HgN/A
3:00 PM41 °FQuite cool.8 mph95%30.32 "HgN/A
2:00 PM41 °FQuite cool.7 mph93%30.32 "HgN/A
1:00 PM41 °FLight rain. Overcast.5 mph90%30.35 "Hg6 mi
12:00 PM42 °FQuite cool.1 mph92%30.36 "HgN/A
11:00 AM40 °FQuite cool.5 mph91%30.36 "HgN/A
10:00 AM40 °FLight rain. Overcast.5 mph88%30.37 "Hg6 mi
Weather by CustomWeather, © 2015

See weather overviewHow to use our weather pages